Regional Weather Roundup
Issued by NWS Charleston, SC

Current Version | Previous Version | Text Only | Print | Product List | Glossary Off
Versions: 1 2 3 4 5 6 7 8 9 10 11 12 13 14 15 16 17 18 19 20 21 22 23 24 25 26 27 28 29 30 31 32 33 34 35 36 37 38 39 40 41 42 43 44 45 46 47 48 49 50

000
ASUS42 KCHS 222225
RWRCHS

REGIONAL WEATHER ROUNDUP
NATIONAL WEATHER SERVICE CHARLESTON SC
500 PM EST SAT NOV 22 2014

NOTE: "FAIR" INDICATES FEW OR NO CLOUDS BELOW 12,000 FEET WITH NO
SIGNIFICANT WEATHER AND/OR OBSTRUCTIONS TO VISIBILITY.

NOT ALL STATIONS ARE QUALITY CONTROLLED BY THE NATIONAL
WEATHER SERVICE. USE DATA WITH CAUTION...ESPECIALLY
DEWPOINT OBSERVATIONS.

SCZ027-030-031-034>040-042>050-222300-
...SOUTHEAST SOUTH CAROLINA...

CITY           SKY/WX    TMP DP  RH WIND       PRES   REMARKS
N CHARLESTON   PTCLDY    59  50  72 E7        30.35F
WATERFRONT PRK   N/A     57 N/A N/A NE12        N/A
MOUNT PLEASANT FAIR      55  54  94 CALM      30.35F
JOHNS ISLAND   CLEAR     55  54  94 NE13      30.35F
PINOPOLIS        N/A     68  50  52 E2        30.28R
MONCKS CORNER  FAIR      61  52  72 E5        30.34F
SUMMERVILLE    FAIR      61  50  67 SE3       30.35S
BEAUFORT MCAS  CLOUDY    60  51  72 E9        30.34F
BEAUFORT ARPT  CLOUDY    57  54  88 E9G16     30.33S
HILTON HEAD IS PTCLDY    57  54  88 NE10      30.33F
WALTERBORO     CLEAR     61  39  44 E5        30.34S
ALLENDALE      FAIR      61  43  51 CALM      30.32F

...SOUTHERN MIDLANDS AND PEE DEE...

CITY           SKY/WX    TMP DP  RH WIND       PRES   REMARKS
GEORGETOWN     NOT AVBL
KINGSTREE      NOT AVBL
ORANGEBURG     CLEAR     60  30  32 E3        30.34F
BARNWELL       MOCLDY    63  34  34 E3        30.34S
AIKEN          MOCLDY    57  28  33 E3        30.37R
MANNING        NOT AVBL
COLUMBIA       PTCLDY    59  25  27 E7        30.34F
SUMTER         CLEAR     58  24  26 E5        30.34F
FLORENCE       CLEAR     58  29  33 CALM      30.37F
MYRTLE BEACH   CLEAR     55  46  71 E12       30.40S
N MYRTLE BEACH CLEAR     56  48  74 E3        30.38F

$$

GAZ063-065-086>088-099>101-113>116-118-119-134>141-150-222300-
...SOUTHEAST GEORGIA...

CITY           SKY/WX    TMP DP  RH WIND       PRES   REMARKS
SAVANNAH ARPT  MOCLDY    62  51  67 E9        30.31F
HUNTER AAF     PTCLDY    60  53  79 NE12G18   30.29F
FORT STEWART   CLOUDY    63  53  70 E12       30.27F
STATESBORO     NOT AVBL
SYLVANIA       PTCLDY    64  47  55 E7        30.32S
CLAXTON        CLOUDY    64  52  63 E8        30.29S

...CSRA...CENTRAL AND FAR SOUTHEAST GEORGIA...

CITY           SKY/WX    TMP DP  RH WIND       PRES   REMARKS
THOMSON        MOCLDY    60  35  38 E3        30.35F
AUGUSTA-BUSH   MOCLDY    62  24  23 E8        30.33S
AUGUSTA-DANIEL CLOUDY    62  28  27 E7        30.33S
SWAINSBORO     CLOUDY    64  52  63 E10       30.28F
VIDALIA        CLOUDY    63  52  67 E8        30.27S
HAZLEHURST     RAIN      66  55  67 E5        30.24S
ALMA           CLOUDY    63  53  70 E7        30.24F
WAYCROSS       CLOUDY    66  59  78 E12G20    30.24F
JESUP          LGT RAIN  63  57  82 E12       30.26F
BAXLEY         LGT RAIN  63  55  77 E7        30.25F
BRUNSWICK        N/A     61  55  82 NE9       30.26F
SAINT SIMONS   CLOUDY    63  58  83 NE8       30.26F

$$

SCZ027-028-034-036>038-045-046-048>050-GAZ119-141-222300-
...LAKE AND SUPPLEMENTAL COASTAL OBSERVATIONS...

STATION/POSITION TIME  TEMP    WIND        PRES    WAVE   SWELL
                       AIR SEA DIR/SP/G            HT/PER HT/PER/DIR
                 (UTC) (F)     (DEG/KT/KT) (MB)    (FT/S) (FT/S/D)
UPR LAKE MARION  NOT AVBL
WINYAH BAY       2200   56      70/ 11     1028.0S
LAKE MURRAY      2200   59      70/  3/  7 1026.8F
ACE BASIN NERRS  2200   59      70/  3     1027.0S
FORT PULASKI     2200   57      40/ 17/ 22 1026.3F
SAPELO ISLAND    NOT AVBL

$$

ANZ835-935-AMZ111-154-330-350-352-354-370-450-454-472-222300-
...C-MAN AND BUOY OBSERVATIONS...

STATION/POSITION TIME  TEMP    WIND        PRES    WAVE   SWELL
                       AIR SEA DIR/SP/G            HT/PER HT/PER/DIR
                 (UTC) (F)     (DEG/KT/KT) (MB)    (FT/S) (FT/S/D)
FOLLY BEACH CMAN 2200   56      40/ 12/ 13 1028.0F
BUOY 41004       2200   66 75   70/ 14/ 19 1026.6F   4/ 5   2/ 9
BUOY 41008       2200   66 64   70/ 16/ 19 1024.7F   6/ 7   2/130/ 8
CAPERS NEARSHORE 2100   58      70/ 16/ 19   N/A
FRIPP NEARSHORE  NOT AVBL


STATION/POSITION TIME  TEMP    WIND        PRES    WAVE   SWELL
                       AIR SEA DIR/SP/G            HT/PER HT/PER/DIR
                 (UTC) (F)     (DEG/KT/KT) (MB)    (FT/S) (FT/S/D)
5E ST. MARYS GA  2200      62                N/A     7/ 7
FRYING PAN BUOY  2200   62 63   70/ 14/ 16 1028.9F   4/10   2/ 80/10
BUOY 41025       2200   59      50/  2/  6 1030.3F   3/ 8   3/ 40/ 8
CAPE LOOKOUT NC  2200   54      50/  6/  7 1029.5F
BUOY 41002       2116   65 73  100/ 14/ 17 1029.4    5/ 8   3/ 50/ 8
BUOY 41010       2200   73 78   90/ 23/ 29 1022.8F   9/ 8
ST AUGUSTINE FL  2200   68     100/ 17/ 19 1023.1F


$$



USA.gov is the U.S. government's official web portal to all federal, state and local government web resources and services.